Satellite: NOAA-10 Catalog number: 16969 Epoch time: 13129.14751718 Element set: 347 Inclination: 098.5477 deg RA of node: 157.8313 deg Eccentricity: 0.0011952 Arg of perigee: 006.1318 deg Mean anomaly: 039.7776 deg Mean motion: 14.27634362 rev/day Decay rate: 6.7e-07 rev/day^2 Epoch rev: 38637 Checksum: 329
Satellite: NOAA-11 Catalog number: 19531 Epoch time: 13129.13591676 Element set: 350 Inclination: 098.7109 deg RA of node: 213.0879 deg Eccentricity: 0.0011191 Arg of perigee: 019.2432 deg Mean anomaly: 038.8583 deg Mean motion: 14.15012840 rev/day Decay rate: 5.9e-07 rev/day^2 Epoch rev: 27060 Checksum: 282
Satellite: NOAA-12 Catalog number: 21263 Epoch time: 13129.08911132 Element set: 819 Inclination: 098.6991 deg RA of node: 154.7806 deg Eccentricity: 0.0013039 Arg of perigee: 337.5989 deg Mean anomaly: 093.1532 deg Mean motion: 14.25561551 rev/day Decay rate: 3.7e-07 rev/day^2 Epoch rev: 14298 Checksum: 312
Satellite: MET-3/5 Catalog number: 21655 Epoch time: 13129.50647995 Element set: 685 Inclination: 082.5554 deg RA of node: 281.6206 deg Eccentricity: 0.0012852 Arg of perigee: 222.0205 deg Mean anomaly: 137.9932 deg Mean motion: 13.17046947 rev/day Decay rate: 4.0e-08 rev/day^2 Epoch rev: 4484 Checksum: 304
Satellite: MET-2/21 Catalog number: 22782 Epoch time: 13129.14821271 Element set: 734 Inclination: 082.5472 deg RA of node: 133.8975 deg Eccentricity: 0.0021280 Arg of perigee: 321.1171 deg Mean anomaly: 107.5416 deg Mean motion: 13.83703691 rev/day Decay rate: 2.1e-07 rev/day^2 Epoch rev: 99424 Checksum: 282
Satellite: OKEAN-4 Catalog number: 23317 Epoch time: 13129.45295282 Element set: 213 Inclination: 082.5393 deg RA of node: 086.0445 deg Eccentricity: 0.0020733 Arg of perigee: 358.9386 deg Mean anomaly: 152.9168 deg Mean motion: 14.84407766 rev/day Decay rate: 1.082e-05 rev/day^2 Epoch rev: 319 Checksum: 305
Satellite: NOAA-14 Catalog number: 23455 Epoch time: 13129.15681010 Element set: 304 Inclination: 098.8029 deg RA of node: 214.1855 deg Eccentricity: 0.0010609 Arg of perigee: 109.1071 deg Mean anomaly: 340.7676 deg Mean motion: 14.13903895 rev/day Decay rate: 1.08e-06 rev/day^2 Epoch rev: 94685 Checksum: 293
Satellite: NOAA-15 Catalog number: 25338 Epoch time: 13129.12827080 Element set: 723 Inclination: 098.7226 deg RA of node: 119.5505 deg Eccentricity: 0.0009768 Arg of perigee: 236.9612 deg Mean anomaly: 255.8338 deg Mean motion: 14.25211103 rev/day Decay rate: 1.58e-06 rev/day^2 Epoch rev: 77927 Checksum: 312
Satellite: RESURS Catalog number: 25394 Epoch time: 13129.10478095 Element set: 370 Inclination: 098.3585 deg RA of node: 106.8241 deg Eccentricity: 0.0001774 Arg of perigee: 051.3656 deg Mean anomaly: 080.0739 deg Mean motion: 14.24329173 rev/day Decay rate: -.00000000 rev/day^2 Epoch rev: 77079 Checksum: 284
Satellite: FENGYUN1 Catalog number: 25730 Epoch time: 13129.10597081 Element set: 868 Inclination: 098.8764 deg RA of node: 089.1032 deg Eccentricity: 0.0024532 Arg of perigee: 152.2850 deg Mean anomaly: 336.6468 deg Mean motion: 14.10450212 rev/day Decay rate: 1.101e-05 rev/day^2 Epoch rev: 72053 Checksum: 275
Satellite: OKEAN-0 Catalog number: 25860 Epoch time: 13129.02347060 Element set: 940 Inclination: 097.9871 deg RA of node: 092.0068 deg Eccentricity: 0.0000798 Arg of perigee: 110.2468 deg Mean anomaly: 289.0291 deg Mean motion: 14.74570663 rev/day Decay rate: 4.55e-06 rev/day^2 Epoch rev: 74258 Checksum: 308
Satellite: NOAA-16 Catalog number: 26536 Epoch time: 13129.10366299 Element set: 200 Inclination: 099.0455 deg RA of node: 181.4758 deg Eccentricity: 0.0009865 Arg of perigee: 241.5256 deg Mean anomaly: 170.7475 deg Mean motion: 14.12870063 rev/day Decay rate: 9.7e-07 rev/day^2 Epoch rev: 65105 Checksum: 309
Satellite: NOAA-17 Catalog number: 27453 Epoch time: 13129.15828630 Element set: 123 Inclination: 098.3133 deg RA of node: 145.3074 deg Eccentricity: 0.0010413 Arg of perigee: 280.2266 deg Mean anomaly: 144.4732 deg Mean motion: 14.24586134 rev/day Decay rate: 4.3e-07 rev/day^2 Epoch rev: 56516 Checksum: 274
Satellite: NOAA-18 Catalog number: 28654 Epoch time: 13129.11198750 Element set: 608 Inclination: 099.0967 deg RA of node: 096.7741 deg Eccentricity: 0.0013487 Arg of perigee: 321.9699 deg Mean anomaly: 168.7051 deg Mean motion: 14.11808362 rev/day Decay rate: 2.67e-06 rev/day^2 Epoch rev: 41054 Checksum: 333
Satellite: NOAA-19 Catalog number: 33591 Epoch time: 13129.12137764 Element set: 792 Inclination: 098.9016 deg RA of node: 071.4987 deg Eccentricity: 0.0014264 Arg of perigee: 175.7967 deg Mean anomaly: 310.3200 deg Mean motion: 14.11494682 rev/day Decay rate: 2.76e-06 rev/day^2 Epoch rev: 21898 Checksum: 326
/EX SB KEPS @ AMSAT $ORB13129.M Orbital Elements 13129.MISC
HR AMSAT ORBITAL ELEMENTS FOR MANNED AND MISCELLANEOUS SATELLITES FROM WA5QGD FORT WORTH,TX May 9, 2013 BID: ORB13129.M TO ALL RADIO AMATEURS BT
Satellite: HUBBLE Catalog number: 20580 Epoch time: 13129.16350664 Element set: 235 Inclination: 028.4687 deg RA of node: 168.6386 deg Eccentricity: 0.0003034 Arg of perigee: 297.6803 deg Mean anomaly: 119.1228 deg Mean motion: 15.03561569 rev/day Decay rate: 1.495e-05 rev/day^2 Epoch rev: 6381 Checksum: 300
Satellite: ISS Catalog number: 25544 Epoch time: 13129.91061132 Element set: 779 Inclination: 051.6488 deg RA of node: 298.1377 deg Eccentricity: 0.0004512 Arg of perigee: 277.5422 deg Mean anomaly: 179.8735 deg Mean motion: 15.51002943 rev/day Decay rate: 2.4878e-04 rev/day^2 Epoch rev: 82876 Checksum: 329
Satellite: CO-58 Catalog number: 28895 Epoch time: 13129.59454290 Element set: 471 Inclination: 097.8745 deg RA of node: 346.7958 deg Eccentricity: 0.0017430 Arg of perigee: 198.8926 deg Mean anomaly: 161.1631 deg Mean motion: 14.61072317 rev/day Decay rate: 5.51e-06 rev/day^2 Epoch rev: 40130 Checksum: 331
Satellite: FALCON Catalog number: 30776 Epoch time: 13129.28822444 Element set: 609 Inclination: 035.4310 deg RA of node: 080.9098 deg Eccentricity: 0.0002236 Arg of perigee: 295.9587 deg Mean anomaly: 189.8649 deg Mean motion: 15.10319748 rev/day Decay rate: 4.191e-05 rev/day^2 Epoch rev: 33953 Checksum: 326
Satellite: MAST Catalog number: 31126 Epoch time: 13129.07532506 Element set: 749 Inclination: 097.8800 deg RA of node: 127.2339 deg Eccentricity: 0.0093861 Arg of perigee: 173.8437 deg Mean anomaly: 259.0290 deg Mean motion: 14.54531252 rev/day Decay rate: 4.19e-06 rev/day^2 Epoch rev: 32163 Checksum: 293
Satellite: CAPE1 Catalog number: 31130 Epoch time: 13128.94401703 Element set: 757 Inclination: 097.8967 deg RA of node: 123.4481 deg Eccentricity: 0.0100836 Arg of perigee: 189.6261 deg Mean anomaly: 170.3006 deg Mean motion: 14.53434262 rev/day Decay rate: 5.54e-06 rev/day^2 Epoch rev: 32107 Checksum: 278
Satellite: COMPASS Catalog number: 32787 Epoch time: 13129.13514308 Element set: 617 Inclination: 097.7553 deg RA of node: 188.7072 deg Eccentricity: 0.0016047 Arg of perigee: 075.5961 deg Mean anomaly: 284.7034 deg Mean motion: 14.85337790 rev/day Decay rate: 2.097e-05 rev/day^2 Epoch rev: 27216 Checksum: 321
Satellite: AAUSAT2 Catalog number: 32788 Epoch time: 13129.77959876 Element set: 604 Inclination: 097.7563 deg RA of node: 189.9328 deg Eccentricity: 0.0015682 Arg of perigee: 073.3617 deg Mean anomaly: 021.6177 deg Mean motion: 14.85787584 rev/day Decay rate: 2.750e-05 rev/day^2 Epoch rev: 27230 Checksum: 357
Satellite: DO-64 Catalog number: 32789 Epoch time: 13129.18897895 Element set: 632 Inclination: 097.7714 deg RA of node: 192.9039 deg Eccentricity: 0.0015055 Arg of perigee: 070.1181 deg Mean anomaly: 355.0884 deg Mean motion: 14.88260219 rev/day Decay rate: 4.815e-05 rev/day^2 Epoch rev: 27232 Checksum: 340
Satellite: CO-66 Catalog number: 32791 Epoch time: 13129.15470086 Element set: 601 Inclination: 097.7557 deg RA of node: 188.1393 deg Eccentricity: 0.0016574 Arg of perigee: 076.3183 deg Mean anomaly: 339.7388 deg Mean motion: 14.84506470 rev/day Decay rate: 2.028e-05 rev/day^2 Epoch rev: 27208 Checksum: 332
Satellite: RS-30 Catalog number: 32953 Epoch time: 13129.90951345 Element set: 837 Inclination: 082.4996 deg RA of node: 091.9923 deg Eccentricity: 0.0018010 Arg of perigee: 320.8309 deg Mean anomaly: 039.1469 deg Mean motion: 12.43033630 rev/day Decay rate: 1.0e-07 rev/day^2 Epoch rev: 22515 Checksum: 285
Satellite: METEOR-M Catalog number: 35865 Epoch time: 13129.66370411 Element set: 432 Inclination: 098.6056 deg RA of node: 183.0267 deg Eccentricity: 0.0002205 Arg of perigee: 165.9263 deg Mean anomaly: 194.1974 deg Mean motion: 14.21884979 rev/day Decay rate: 3.0e-08 rev/day^2 Epoch rev: 18899 Checksum: 320
Satellite: RS-38 Catalog number: 35869 Epoch time: 13129.70357077 Element set: 402 Inclination: 098.6000 deg RA of node: 182.9912 deg Eccentricity: 0.0004257 Arg of perigee: 175.9578 deg Mean anomaly: 184.1632 deg Mean motion: 14.22125400 rev/day Decay rate: 6.1e-07 rev/day^2 Epoch rev: 18902 Checksum: 299
Satellite: JUGNU Catalog number: 37839 Epoch time: 13129.52270554 Element set: 383 Inclination: 019.9600 deg RA of node: 181.0571 deg Eccentricity: 0.0018863 Arg of perigee: 217.3808 deg Mean anomaly: 288.1521 deg Mean motion: 14.12149697 rev/day Decay rate: 3.98e-06 rev/day^2 Epoch rev: 8142 Checksum: 308
Satellite: SRMSAT Catalog number: 37841 Epoch time: 13128.53477141 Element set: 384 Inclination: 019.9706 deg RA of node: 198.3148 deg Eccentricity: 0.0011744 Arg of perigee: 160.8667 deg Mean anomaly: 333.1652 deg Mean motion: 14.10220472 rev/day Decay rate: 3.88e-06 rev/day^2 Epoch rev: 8116 Checksum: 292
